Waarnemingen

Advertentie
Mijn weer
Jaen, Spanje (8417): temperatuur & dauwpunt: 17.05.2018 01:00:00 - 23.05.2018 01:00:00 (CEST)Jaen, Spanje (8417): windsnelheid: 17.05.2018 01:00:00 - 23.05.2018 01:00:00 (CEST)Jaen, Spanje (8417): windrichting: 17.05.2018 01:00:00 - 23.05.2018 01:00:00 (CEST)Jaen, Spanje (8417): luchtdruk: 17.05.2018 01:00:00 - 23.05.2018 01:00:00 (CEST)Jaen, Spanje (8417): zicht: 17.05.2018 01:00:00 - 23.05.2018 01:00:00 (CEST)Jaen, Spanje (8417): neerslag: 17.05.2018 01:00:00 - 23.05.2018 01:00:00 (CEST)
Datum & Tijd tt [°C] td [°C] ff [km/u] ff [kn] dd ppp [hPa] vv [km] rr [mm]
23.05.2018 01:00:00 17,9 11,9 4 2 ZZW 1015,4 20 0,0
23.05.2018 00:00:00 18,7 11,3 2 1 Z 1015,1 20 0,0
22.05.2018 23:00:00 20,1 9,6 13 7 WZW 1014,5 20 -
22.05.2018 22:00:00 19,8 11,6 11 6 W 1013,8 20 0,0
22.05.2018 21:00:00 21,6 11,9 11 6 W 1012,8 20 0,0
22.05.2018 20:00:00 24,3 10,9 11 6 WNW 1011,8 20 -
22.05.2018 19:00:00 24,8 9,9 9 5 NW 1011,6 20 0,0
22.05.2018 18:00:00 24,6 9,7 11 6 NNW 1011,7 20 0,0
22.05.2018 17:00:00 25,1 9,8 4 2 NW 1011,6 20 -
22.05.2018 16:00:00 24,1 10,4 5 3 NW 1012,4 20 0,0
22.05.2018 15:00:00 23,5 10,9 8 4 NNO 1012,9 20 0,0
22.05.2018 14:00:00 22,0 11,1 5 3 N 1013,6 20 -
22.05.2018 13:00:00 20,7 12,4 9 5 N 1014,2 20 0,0
22.05.2018 12:00:00 19,0 13,2 5 3 ONO 1014,6 20 0,0
22.05.2018 11:00:00 17,2 12,9 5 3 O 1015,1 20 -
22.05.2018 10:00:00 15,6 12,9 9 5 OZO 1015,4 19 0,0
22.05.2018 09:00:00 13,6 12,5 4 2 NNO 1015,8 12 0,0
22.05.2018 08:00:00 12,7 12,1 0 0 N 1015,8 10 -
22.05.2018 07:00:00 12,2 10,9 2 1 W 1015,5 19 0,0
22.05.2018 06:00:00 12,5 11,2 2 1 Z 1014,8 20 0,0
22.05.2018 05:00:00 12,0 11,1 4 2 Z 1015,2 12 -
22.05.2018 04:00:00 12,3 10,9 2 1 ZZO 1015,0 19 0,0
22.05.2018 03:00:00 12,6 10,5 5 3 WNW 1014,9 20 0,0
22.05.2018 02:00:00 12,7 10,6 5 3 WZW 1015,1 20 -
22.05.2018 01:00:00 13,1 10,8 4 2 ZW 1015,0 20 0,0
22.05.2018 00:00:00 13,6 10,9 5 3 Z 1015,0 20 0,0
21.05.2018 23:00:00 14,2 11,5 4 2 W 1014,5 20 -
21.05.2018 22:00:00 14,6 11,6 8 4 Z 1013,6 20 0,0
21.05.2018 21:00:00 15,0 11,2 5 3 Z 1013,2 20 0,0
21.05.2018 20:00:00 15,8 12,9 4 2 W 1012,3 20 -
21.05.2018 19:00:00 15,5 12,1 15 8 Z 1012,0 20 0,8
21.05.2018 18:00:00 14,4 11,7 21 11 ZW 1012,5 3,5 8,0
21.05.2018 17:00:00 21,5 8,4 16 9 WNW 1010,0 20 -
21.05.2018 16:00:00 21,7 8,6 15 8 WNW 1010,3 20 0,0
21.05.2018 15:00:00 20,6 9,2 15 8 W 1010,7 20 0,0
21.05.2018 14:00:00 21,3 9,8 16 9 NW 1011,0 20 -
21.05.2018 13:00:00 18,7 9,7 9 5 NW 1012,0 20 0,0
21.05.2018 12:00:00 19,6 11,1 13 7 NNW 1012,0 20 0,0
21.05.2018 11:00:00 18,8 10,4 8 4 N 1012,2 20 -
21.05.2018 10:00:00 16,2 9,8 5 3 N 1012,8 20 0,0
21.05.2018 09:00:00 14,6 10,6 2 1 O 1012,8 20 0,0
21.05.2018 08:00:00 - - - - - - - -
21.05.2018 07:00:00 - - - - - - - -
21.05.2018 06:00:00 - - - - - - - -
21.05.2018 05:00:00 - - - - - - - -
21.05.2018 04:00:00 - - - - - - - -
21.05.2018 03:00:00 - - - - - - - -
21.05.2018 02:00:00 - - - - - - - -
21.05.2018 01:00:00 - - - - - - - -
21.05.2018 00:00:00 - - - - - - - -
20.05.2018 23:00:00 - - - - - - - -
20.05.2018 22:00:00 16,4 8,9 5 3 WNW 1012,8 20 0,0
20.05.2018 21:00:00 17,5 9,6 2 1 ZO 1012,2 20 0,0
20.05.2018 20:00:00 18,5 9,6 4 2 O 1011,4 20 -
20.05.2018 19:00:00 18,4 10,2 9 5 WZW 1011,1 20 0,0
20.05.2018 18:00:00 18,7 9,5 8 4 Z 1010,6 20 0,0
20.05.2018 17:00:00 18,1 8,9 13 7 ZO 1011,1 20 -
20.05.2018 16:00:00 18,7 11,5 11 6 ZZO 1011,5 20 0,0
20.05.2018 15:00:00 20,4 11,6 4 2 W 1012,1 20 0,0
20.05.2018 14:00:00 21,0 11,1 5 3 NO 1012,3 20 -
20.05.2018 13:00:00 19,9 10,9 5 3 ONO 1013,3 20 0,0
20.05.2018 12:00:00 18,6 11,9 8 4 NNO 1014,1 20 0,0
20.05.2018 11:00:00 18,2 11,0 9 5 N 1014,1 20 -
20.05.2018 10:00:00 17,0 10,8 11 6 OZO 1014,4 20 0,0
20.05.2018 09:00:00 16,2 10,3 8 4 O 1014,6 20 0,0
20.05.2018 08:00:00 13,3 9,9 0 0 N 1015,3 20 -
20.05.2018 07:00:00 12,4 9,4 2 1 ZZW 1015,4 20 0,0
20.05.2018 06:00:00 12,9 9,5 5 3 ZZW 1015,1 20 0,0
20.05.2018 05:00:00 13,5 9,2 4 2 WZW 1015,0 20 -
20.05.2018 04:00:00 14,0 9,4 4 2 W 1014,9 20 0,0
20.05.2018 03:00:00 14,3 9,3 4 2 WZW 1015,4 20 0,0
20.05.2018 02:00:00 14,3 8,7 2 1 ZW 1015,6 20 -
20.05.2018 01:00:00 15,6 9,0 4 2 ZZW 1015,6 20 0,0
20.05.2018 00:00:00 16,8 8,7 11 6 WZW 1015,8 20 0,0
19.05.2018 23:00:00 17,3 9,2 9 5 WNW 1015,3 20 -
19.05.2018 22:00:00 17,9 9,3 11 6 W 1014,5 20 0,0
19.05.2018 21:00:00 19,0 11,1 5 3 Z 1013,7 20 0,0
19.05.2018 20:00:00 20,1 8,7 11 6 W 1012,7 20 -
19.05.2018 19:00:00 19,3 9,8 16 9 W 1012,9 20 0,0
19.05.2018 18:00:00 17,7 11,0 16 9 ZW 1013,3 20 0,6
19.05.2018 17:00:00 22,7 8,0 11 6 Z 1012,6 20 -
19.05.2018 16:00:00 22,5 8,9 18 10 NNW 1012,7 20 0,0
19.05.2018 15:00:00 23,4 7,9 5 3 NO 1013,0 20 0,0
19.05.2018 14:00:00 23,5 8,7 8 4 ONO 1013,6 20 -
19.05.2018 13:00:00 22,1 8,6 5 3 OZO 1014,6 20 0,0
19.05.2018 12:00:00 21,2 9,4 5 3 NO 1015,2 19 0,0
19.05.2018 11:00:00 19,1 9,8 4 2 O 1015,9 20 -
19.05.2018 10:00:00 18,0 9,1 4 2 ONO 1015,8 20 0,0
19.05.2018 09:00:00 16,1 7,3 4 2 NNO 1016,0 20 0,0
19.05.2018 08:00:00 13,9 8,5 0 0 N 1016,3 20 -
19.05.2018 07:00:00 12,8 7,5 2 1 ZW 1016,2 20 0,0
19.05.2018 06:00:00 13,5 7,7 8 4 ZW 1016,0 20 0,0
19.05.2018 05:00:00 14,5 7,3 2 1 N 1015,9 20 -
19.05.2018 04:00:00 15,2 8,4 11 6 W 1015,9 20 0,0
19.05.2018 03:00:00 16,2 8,2 9 5 W 1015,9 20 0,0
19.05.2018 02:00:00 16,5 7,9 9 5 W 1016,1 20 -
19.05.2018 01:00:00 16,8 7,7 4 2 ZZW 1015,8 20 0,0
19.05.2018 00:00:00 17,0 6,5 15 8 Z 1015,6 20 0,0
18.05.2018 23:00:00 17,1 6,6 13 7 Z 1015,2 20 -
18.05.2018 22:00:00 16,9 7,5 15 8 Z 1014,9 20 0,0
18.05.2018 21:00:00 17,0 8,7 18 10 Z 1014,7 20 0,0
18.05.2018 20:00:00 18,7 7,2 15 8 ZZO 1014,1 20 -
18.05.2018 19:00:00 19,4 9,6 15 8 ZO 1014,2 20 0,0
18.05.2018 18:00:00 21,5 9,1 9 5 N 1013,3 20 0,0
18.05.2018 17:00:00 21,2 10,4 16 9 NW 1013,5 20 -
18.05.2018 16:00:00 21,0 9,3 16 9 NW 1013,5 20 0,0
18.05.2018 15:00:00 20,2 10,3 16 9 WNW 1014,1 20 0,0
18.05.2018 14:00:00 19,1 10,4 16 9 NW 1015,1 20 -
18.05.2018 13:00:00 19,0 11,1 13 7 NW 1015,3 20 0,0
18.05.2018 12:00:00 18,2 10,3 8 4 NNW 1015,4 20 0,0
18.05.2018 11:00:00 17,1 10,2 8 4 NNW 1015,6 20 -
18.05.2018 10:00:00 17,0 10,1 5 3 O 1015,3 20 0,0
18.05.2018 09:00:00 15,0 8,9 2 1 NNO 1015,8 11 0,0
18.05.2018 08:00:00 14,7 8,6 2 1 Z 1015,5 20 -
18.05.2018 07:00:00 15,2 6,2 2 1 ZO 1015,0 20 0,0
18.05.2018 06:00:00 14,8 5,8 8 4 Z 1014,9 20 0,0
18.05.2018 05:00:00 15,6 5,5 11 6 Z 1014,4 20 -
18.05.2018 04:00:00 15,7 7,2 9 5 Z 1014,7 20 0,0
18.05.2018 03:00:00 16,6 6,1 5 3 Z 1014,5 20 0,0
18.05.2018 02:00:00 17,8 7,5 15 8 Z 1014,5 20 -
18.05.2018 01:00:00 19,0 6,8 9 5 ZW 1014,4 20 0,0
18.05.2018 00:00:00 18,9 6,0 13 7 ZZO 1014,1 20 0,0
17.05.2018 23:00:00 19,7 6,8 16 9 ZO 1013,4 20 -
17.05.2018 22:00:00 20,5 6,8 13 7 ZZO 1012,3 20 0,0
17.05.2018 21:00:00 21,5 4,1 16 9 ZO 1011,4 20 0,0
17.05.2018 20:00:00 22,4 4,4 18 10 ZO 1010,5 20 -
17.05.2018 19:00:00 23,7 5,1 8 4 ZO 1009,9 20 0,0
17.05.2018 18:00:00 24,3 4,6 4 2 ZO 1009,7 20 0,0
17.05.2018 17:00:00 24,4 6,2 8 4 O 1009,6 20 -
17.05.2018 16:00:00 25,5 5,6 8 4 ZO 1009,6 20 0,0
17.05.2018 15:00:00 24,5 6,3 9 5 ZO 1010,2 20 0,0
17.05.2018 14:00:00 23,9 6,2 11 6 OZO 1010,8 20 -
17.05.2018 13:00:00 23,0 5,4 8 4 NO 1011,3 20 0,0
17.05.2018 12:00:00 21,3 4,4 15 8 OZO 1011,9 20 0,0
17.05.2018 11:00:00 19,6 5,3 16 9 OZO 1012,3 20 -
17.05.2018 10:00:00 18,0 5,2 24 13 ZO 1012,8 20 0,0
17.05.2018 09:00:00 16,6 4,0 22 12 ZO 1012,9 20 0,0
17.05.2018 08:00:00 15,7 3,1 29 16 ZO 1013,2 20 -
17.05.2018 07:00:00 15,5 1,9 24 13 ZO 1012,9 20 0,0
17.05.2018 06:00:00 15,9 2,3 24 13 ZZO 1012,7 20 0,0
17.05.2018 05:00:00 15,8 2,9 16 9 ZO 1013,1 20 -
17.05.2018 04:00:00 16,4 2,8 28 15 ZO 1012,8 20 0,0
17.05.2018 03:00:00 16,7 2,7 21 11 ZO 1012,5 20 0,0
17.05.2018 02:00:00 17,7 2,0 22 12 ZO 1011,8 20 -
17.05.2018 01:00:00 18,5 1,9 18 10 ZZO 1012,0 20 0,0

tt = temperatuur
td = dauwpunt
ff = windsnelheid
dd = windrichting
ppp = luchtdruk
vv = zicht
rr = neerslag

Weerstations in de omgeving